{"data":{"norad_id":67009,"intl_designator":"2025-293G","name":"STARLINK-36118","alt_names":[],"object_type":"PAYLOAD","status":"ACTIVE","operator":null,"country":"US","launch_date":"2025-12-10","launch_site_code":"AFWTR","launch_vehicle":null,"mission":null,"orbit_class":"UNKNOWN","rcs_meters":null,"size_class":null,"mass_kg":null,"dimensions":null,"purposes":["comms"],"wikipedia_slug":null,"has_3d_model":false,"image_url":null,"decayed_at":null,"tle_current":{"epoch":"2026-09-20T14:12:58.035168Z","epoch_age_seconds":73289,"freshness":"FRESH","line1":"1 67009U 25293G   26263.59233837  .00001886  00000+0  16588-3 0  9995","line2":"2 67009  70.0011 322.9876 0003602 272.2962  87.7785 14.98319843 44089","mean_motion":14.98319843,"eccentricity":0.0003602,"inclination_deg":70.0011,"raan_deg":322.9876,"arg_perigee_deg":272.2962,"mean_anomaly_deg":87.7785,"bstar":0.00016588,"rev_number":4408,"period_min":96.107650627971,"perigee_km":569.58383001335,"apogee_km":574.59077159965,"semimajor_km":6950.2243008065,"source":"CELESTRAK","updated_at":"2026-09-21T09:00:36.069344Z"}}}